Tracking 30918 objects as of 3-Jul-2025
HD Live streaming from Space Station
objects crossing your sky now

SL-16 DEB

Track SL-16 DEB now!
10-day predictions


NORAD ID: 43354
Int'l Code: 1996-051P
Perigee: 784.7 km
Apogee: 921.1 km
Inclination: 71.2 °
Period: 101.8 minutes
Semi major axis: 7223 km
RCS: Unknown
Launch date: September 4, 1996
Source: Commonwealth of Independent States (former USSR) (CIS)
Launch site: TYURATAM MISSILE AND SPACE COMPLEX (TTMTR)

Note: This is SATELLITE DEBRIS
Your satellite tracking list
Your tracking list is empty




NASA's NSSDC Master Catalog

Two Line Element Set (TLE):
1 43354U 96051P   25182.63147383  .00000311  00000-0  18061-3 0  9997
2 43354  71.1910 317.0252 0094362 282.5912  76.4671 14.13987502598859
Source of the keplerian elements: AFSPC